Tracking 30986 objects as of 9-Jul-2025
HD Live streaming from Space Station
objects crossing your sky now

FENGYUN 1C DEB

Track FENGYUN 1C DEB now!
10-day predictions


NORAD ID: 37067
Int'l Code: 1999-025EFB
Perigee: 782.0 km
Apogee: 1,036.8 km
Inclination: 99.5 °
Period: 103.0 minutes
Semi major axis: 7280 km
RCS: 0.001 m2 (small)
Launch date: May 10, 1999
Source: People's Republic of China (PRC)
Launch site: Taiyaun Space Center, China (TSC)

Note: This is SATELLITE DEBRIS
Your satellite tracking list
Your tracking list is empty




NASA's NSSDC Master Catalog

Two Line Element Set (TLE):
1 37067U 99025EFB 25185.06024460  .00002130  00000-0  13574-2 0  9999
2 37067  99.5479 119.9786 0175022 188.7948 171.0135 13.97556739551487
Source of the keplerian elements: AFSPC